Time,TemperatureF,DewpointF,PressureIn,WindDirection,WindDirectionDegrees,WindSpeedMPH,WindSpeedGustMPH,Humidity,HourlyPrecipIn,Conditions,Clouds,dailyrainin,SoftwareType,DateUTC
2013-04-13 00:02:00,25.0,23.0,29.93,West,280,6.0,-999.0,92,-99.99,,,-99.99,,2013-04-13 05:02:00,
2013-04-13 00:12:00,27.0,25.0,29.93,WNW,290,6.0,-999.0,92,-99.99,,,-99.99,,2013-04-13 05:12:00,
2013-04-13 00:22:00,27.0,25.0,29.93,WNW,290,6.0,-999.0,92,-99.99,,,-99.99,,2013-04-13 05:22:00,
2013-04-13 00:32:00,27.0,25.0,29.94,WNW,290,6.0,-999.0,92,-99.99,,,-99.99,,2013-04-13 05:32:00,
2013-04-13 00:43:00,27.0,25.0,29.94,WNW,290,6.0,-999.0,92,-99.99,,,-99.99,,2013-04-13 05:43:00,
2013-04-13 00:52:00,27.0,25.0,29.94,WNW,290,5.0,-999.0,92,-99.99,,,-99.99,,2013-04-13 05:52:00,
2013-04-13 01:02:00,27.0,25.0,29.94,WNW,290,5.0,-999.0,92,-99.99,,,-99.99,,2013-04-13 06:02:00,
2013-04-13 01:12:00,27.0,25.0,29.94,WNW,290,5.0,-999.0,92,-99.99,,,-99.99,,2013-04-13 06:12:00,
2013-04-13 01:23:00,27.0,25.0,29.94,WNW,290,5.0,-999.0,92,-99.99,,,-99.99,,2013-04-13 06:23:00,
2013-04-13 01:34:00,25.0,25.0,29.94,North,0,0.0,-999.0,100,-99.99,,,-99.99,,2013-04-13 06:34:00,
2013-04-13 01:49:00,25.0,25.0,29.94,North,0,0.0,-999.0,100,-99.99,,,-99.99,,2013-04-13 06:49:00,
2013-04-13 01:55:00,25.0,21.0,29.94,North,0,0.0,-999.0,85,-99.99,,,-99.99,,2013-04-13 06:55:00,
2013-04-13 02:05:00,25.0,21.0,29.94,North,0,0.0,-999.0,85,-99.99,,,-99.99,,2013-04-13 07:05:00,
2013-04-13 02:14:00,23.0,21.0,29.94,West,280,5.0,-999.0,92,-99.99,,,-99.99,,2013-04-13 07:14:00,
2013-04-13 02:24:00,23.0,21.0,29.94,West,280,5.0,-999.0,92,-99.99,,,-99.99,,2013-04-13 07:24:00,
2013-04-13 02:34:00,21.0,21.0,29.94,North,0,0.0,-999.0,100,-99.99,,,-99.99,,2013-04-13 07:34:00,
2013-04-13 02:44:00,21.0,21.0,29.94,North,0,0.0,-999.0,100,-99.99,,,-99.99,,2013-04-13 07:44:00,
2013-04-13 02:54:00,21.0,19.0,29.94,West,280,6.0,-999.0,92,-99.99,,,-99.99,,2013-04-13 07:54:00,
2013-04-13 03:06:00,21.0,19.0,29.94,West,280,6.0,-999.0,92,-99.99,,,-99.99,,2013-04-13 08:06:00,
2013-04-13 03:15:00,21.0,19.0,29.94,West,280,6.0,-999.0,92,-99.99,,,-99.99,,2013-04-13 08:15:00,
2013-04-13 03:25:00,21.0,19.0,29.94,West,280,6.0,-999.0,92,-99.99,,,-99.99,,2013-04-13 08:25:00,
2013-04-13 03:47:00,21.0,19.0,29.93,West,270,6.0,-999.0,92,-99.99,,,-99.99,,2013-04-13 08:47:00,
2013-04-13 03:54:00,21.0,19.0,29.93,West,270,6.0,-999.0,92,-99.99,,,-99.99,,2013-04-13 08:54:00,
2013-04-13 04:05:00,21.0,19.0,29.93,West,270,6.0,-999.0,92,-99.99,,,-99.99,,2013-04-13 09:05:00,
2013-04-13 04:14:00,21.0,19.0,29.93,West,270,5.0,-999.0,92,-99.99,,,-99.99,,2013-04-13 09:14:00,
2013-04-13 04:24:00,21.0,19.0,29.93,West,270,5.0,-999.0,92,-99.99,,,-99.99,,2013-04-13 09:24:00,
2013-04-13 04:35:00,19.0,19.0,29.93,West,270,6.0,-999.0,100,-99.99,,,-99.99,,2013-04-13 09:35:00,
2013-04-13 04:49:00,19.0,19.0,29.93,West,270,6.0,-999.0,100,-99.99,,,-99.99,,2013-04-13 09:49:00,
2013-04-13 05:05:00,21.0,21.0,29.93,WNW,290,5.0,-999.0,100,-99.99,,,-99.99,,2013-04-13 10:05:00,
2013-04-13 05:15:00,25.0,23.0,29.93,North,0,0.0,-999.0,92,-99.99,,,-99.99,,2013-04-13 10:15:00,
2013-04-13 05:24:00,25.0,23.0,29.93,North,0,0.0,-999.0,92,-99.99,,,-99.99,,2013-04-13 10:24:00,
2013-04-13 05:36:00,25.0,25.0,29.92,North,0,0.0,-999.0,100,-99.99,,,-99.99,,2013-04-13 10:36:00,
2013-04-13 05:45:00,25.0,25.0,29.92,North,0,0.0,-999.0,100,-99.99,,,-99.99,,2013-04-13 10:45:00,
2013-04-13 05:53:00,25.0,25.0,29.92,West,280,7.0,-999.0,100,-99.99,,,-99.99,,2013-04-13 10:53:00,
2013-04-13 06:05:00,25.0,25.0,29.92,West,280,7.0,-999.0,100,-99.99,,,-99.99,,2013-04-13 11:05:00,
2013-04-13 06:13:00,25.0,25.0,29.92,West,280,7.0,-999.0,100,-99.99,,,-99.99,,2013-04-13 11:13:00,
2013-04-13 06:24:00,25.0,25.0,29.93,WNW,290,8.0,-999.0,100,-99.99,,,-99.99,,2013-04-13 11:24:00,
2013-04-13 06:34:00,27.0,27.0,29.93,West,270,9.0,-999.0,100,-99.99,,,-99.99,,2013-04-13 11:34:00,
2013-04-13 06:44:00,27.0,27.0,29.93,West,270,9.0,-999.0,100,-99.99,,,-99.99,,2013-04-13 11:44:00,
2013-04-13 06:53:00,25.0,25.0,29.92,WNW,290,8.0,-999.0,100,-99.99,,,-99.99,,2013-04-13 11:53:00,
2013-04-13 07:08:00,25.0,25.0,29.92,WNW,290,8.0,-999.0,100,-99.99,,,-99.99,,2013-04-13 12:08:00,
2013-04-13 07:14:00,25.0,25.0,29.92,WNW,300,6.0,-999.0,100,-99.99,,,-99.99,,2013-04-13 12:14:00,
2013-04-13 07:24:00,25.0,25.0,29.92,WNW,300,6.0,-999.0,100,-99.99,,,-99.99,,2013-04-13 12:24:00,
2013-04-13 07:35:00,25.0,25.0,29.93,NW,310,5.0,-999.0,100,-99.99,,,-99.99,,2013-04-13 12:35:00,
2013-04-13 07:46:00,25.0,25.0,29.93,NW,310,5.0,-999.0,100,-99.99,,,-99.99,,2013-04-13 12:46:00,
2013-04-13 07:53:00,25.0,25.0,29.93,NW,310,5.0,-999.0,100,-99.99,,,-99.99,,2013-04-13 12:53:00,
2013-04-13 08:05:00,25.0,25.0,29.93,NW,310,5.0,-999.0,100,-99.99,,,-99.99,,2013-04-13 13:05:00,
2013-04-13 08:15:00,23.0,23.0,29.93,North,0,0.0,-999.0,100,-99.99,,,-99.99,,2013-04-13 13:15:00,
2013-04-13 08:27:00,23.0,23.0,29.93,North,0,0.0,-999.0,100,-99.99,,,-99.99,,2013-04-13 13:27:00,
2013-04-13 08:34:00,23.0,23.0,29.94,North,0,0.0,-999.0,100,-99.99,,,-99.99,,2013-04-13 13:34:00,
2013-04-13 08:47:00,23.0,23.0,29.94,North,0,0.0,-999.0,100,-99.99,,,-99.99,,2013-04-13 13:47:00,
2013-04-13 08:53:00,25.0,25.0,29.94,North,0,0.0,-999.0,100,-99.99,,,-99.99,,2013-04-13 13:53:00,
2013-04-13 09:04:00,25.0,25.0,29.94,North,0,0.0,-999.0,100,-99.99,,,-99.99,,2013-04-13 14:04:00,
2013-04-13 09:14:00,25.0,25.0,29.94,North,0,0.0,-999.0,100,-99.99,,,-99.99,,2013-04-13 14:14:00,
2013-04-13 09:23:00,25.0,25.0,29.94,North,0,0.0,-999.0,100,-99.99,,,-99.99,,2013-04-13 14:23:00,
2013-04-13 09:45:00,25.0,25.0,29.94,North,0,0.0,-999.0,100,-99.99,,,-99.99,,2013-04-13 14:45:00,
2013-04-13 09:54:00,27.0,27.0,29.94,North,0,0.0,-999.0,100,-99.99,,,-99.99,,2013-04-13 14:54:00,
2013-04-13 10:04:00,27.0,27.0,29.94,North,0,0.0,-999.0,100,-99.99,,,-99.99,,2013-04-13 15:04:00,
2013-04-13 10:14:00,27.0,27.0,29.93,North,0,0.0,-999.0,100,-99.99,,,-99.99,,2013-04-13 15:14:00,
2013-04-13 10:28:00,27.0,27.0,29.93,North,0,0.0,-999.0,100,-99.99,,,-99.99,,2013-04-13 15:28:00,
2013-04-13 10:35:00,27.0,27.0,29.92,North,0,0.0,-999.0,100,-99.99,,,-99.99,,2013-04-13 15:35:00,
2013-04-13 10:44:00,27.0,27.0,29.92,North,0,0.0,-999.0,100,-99.99,,,-99.99,,2013-04-13 15:44:00,
2013-04-13 10:54:00,28.0,28.0,29.91,North,0,0.0,-999.0,100,-99.99,,,-99.99,,2013-04-13 15:54:00,
2013-04-13 11:06:00,28.0,28.0,29.91,North,0,0.0,-999.0,100,-99.99,,,-99.99,,2013-04-13 16:06:00,
2013-04-13 11:15:00,28.0,28.0,29.90,North,0,0.0,-999.0,100,-99.99,,,-99.99,,2013-04-13 16:15:00,
2013-04-13 11:24:00,28.0,28.0,29.90,North,0,0.0,-999.0,100,-99.99,,,-99.99,,2013-04-13 16:24:00,
2013-04-13 11:35:00,28.0,28.0,29.90,North,0,0.0,-999.0,100,-99.99,,,-99.99,,2013-04-13 16:35:00,
2013-04-13 11:45:00,28.0,28.0,29.90,North,0,0.0,-999.0,100,-99.99,,,-99.99,,2013-04-13 16:45:00,
2013-04-13 11:53:00,28.0,28.0,29.91,North,0,0.0,-999.0,100,-99.99,,,-99.99,,2013-04-13 16:53:00,
2013-04-13 12:20:00,30.0,28.0,29.91,North,0,0.0,-999.0,92,-99.99,,,-99.99,,2013-04-13 17:20:00,
2013-04-13 12:37:00,30.0,28.0,29.91,SE,130,5.0,-999.0,92,-99.99,,,-99.99,,2013-04-13 17:37:00,
2013-04-13 12:44:00,30.0,28.0,29.91,SE,130,5.0,-999.0,92,-99.99,,,-99.99,,2013-04-13 17:44:00,
2013-04-13 12:57:00,30.0,28.0,29.91,ESE,120,7.0,-999.0,92,-99.99,,,-99.99,,2013-04-13 17:57:00,
2013-04-13 13:05:00,30.0,28.0,29.91,ESE,120,7.0,-999.0,92,-99.99,,,-99.99,,2013-04-13 18:05:00,
2013-04-13 13:14:00,30.0,28.0,29.91,SE,130,7.0,-999.0,92,-99.99,,,-99.99,,2013-04-13 18:14:00,
2013-04-13 13:24:00,30.0,28.0,29.91,SE,130,7.0,-999.0,92,-99.99,,,-99.99,,2013-04-13 18:24:00,
2013-04-13 13:32:00,30.0,28.0,29.90,East,90,5.0,-999.0,92,-99.99,,,-99.99,,2013-04-13 18:32:00,
2013-04-13 13:42:00,30.0,28.0,29.90,East,90,5.0,-999.0,92,-99.99,,,-99.99,,2013-04-13 18:42:00,
2013-04-13 13:52:00,30.0,30.0,29.89,East,80,5.0,-999.0,100,-99.99,,,-99.99,,2013-04-13 18:52:00,
2013-04-13 14:03:00,30.0,30.0,29.89,East,80,5.0,-999.0,100,-99.99,,,-99.99,,2013-04-13 19:03:00,
2013-04-13 14:12:00,32.0,30.0,29.88,ESE,110,6.0,-999.0,92,-99.99,,,-99.99,,2013-04-13 19:12:00,
2013-04-13 14:22:00,32.0,30.0,29.88,ESE,110,6.0,-999.0,92,-99.99,,,-99.99,,2013-04-13 19:22:00,
2013-04-13 14:32:00,32.0,30.0,29.87,East,80,8.0,-999.0,92,-99.99,,,-99.99,,2013-04-13 19:32:00,
2013-04-13 14:42:00,32.0,30.0,29.87,East,80,8.0,-999.0,92,-99.99,,,-99.99,,2013-04-13 19:42:00,
2013-04-13 14:52:00,32.0,30.0,29.87,East,90,7.0,-999.0,92,-99.99,,,-99.99,,2013-04-13 19:52:00,
2013-04-13 15:02:00,32.0,30.0,29.87,East,90,7.0,-999.0,92,-99.99,,,-99.99,,2013-04-13 20:02:00,
2013-04-13 15:12:00,34.0,30.0,29.87,ESE,110,7.0,-999.0,86,-99.99,,,-99.99,,2013-04-13 20:12:00,
2013-04-13 15:22:00,34.0,30.0,29.87,ESE,110,7.0,-999.0,86,-99.99,,,-99.99,,2013-04-13 20:22:00,
2013-04-13 15:32:00,34.0,30.0,29.86,East,90,8.0,-999.0,86,-99.99,,,-99.99,,2013-04-13 20:32:00,
2013-04-13 15:42:00,34.0,30.0,29.86,East,90,8.0,-999.0,86,-99.99,,,-99.99,,2013-04-13 20:42:00,
2013-04-13 15:52:00,34.0,30.0,29.84,East,80,6.0,-999.0,86,-99.99,,,-99.99,,2013-04-13 20:52:00,
2013-04-13 16:02:00,34.0,30.0,29.84,East,80,6.0,-999.0,86,-99.99,,,-99.99,,2013-04-13 21:02:00,
2013-04-13 16:22:00,34.0,30.0,29.84,East,80,6.0,-999.0,86,-99.99,,,-99.99,,2013-04-13 21:22:00,
2013-04-13 16:32:00,34.0,32.0,29.82,ENE,70,8.0,-999.0,93,-99.99,,,-99.99,,2013-04-13 21:32:00,
2013-04-13 16:43:00,34.0,32.0,29.82,ENE,70,8.0,-999.0,93,-99.99,,,-99.99,,2013-04-13 21:43:00,
2013-04-13 16:53:00,34.0,32.0,29.81,ENE,70,9.0,-999.0,93,-99.99,,,-99.99,,2013-04-13 21:53:00,
2013-04-13 17:03:00,34.0,32.0,29.81,ENE,70,9.0,-999.0,93,-99.99,,,-99.99,,2013-04-13 22:03:00,
2013-04-13 17:12:00,34.0,32.0,29.81,ENE,70,9.0,-999.0,93,-99.99,,,-99.99,,2013-04-13 22:12:00,
2013-04-13 17:22:00,34.0,32.0,29.81,ENE,70,9.0,-999.0,93,-99.99,,,-99.99,,2013-04-13 22:22:00,
2013-04-13 17:33:00,34.0,32.0,29.81,ENE,70,8.0,-999.0,93,-99.99,,,-99.99,,2013-04-13 22:33:00,
2013-04-13 17:42:00,34.0,32.0,29.81,ENE,70,8.0,-999.0,93,-99.99,,,-99.99,,2013-04-13 22:42:00,
2013-04-13 17:53:00,34.0,32.0,29.79,ENE,70,9.0,-999.0,93,-99.99,,,-99.99,,2013-04-13 22:53:00,
2013-04-13 18:02:00,34.0,32.0,29.79,ENE,70,9.0,-999.0,93,-99.99,,,-99.99,,2013-04-13 23:02:00,
2013-04-13 18:12:00,34.0,32.0,29.79,ENE,70,9.0,-999.0,93,-99.99,,,-99.99,,2013-04-13 23:12:00,
2013-04-13 18:22:00,34.0,32.0,29.79,ENE,70,9.0,-999.0,93,-99.99,,,-99.99,,2013-04-13 23:22:00,
2013-04-13 18:32:00,34.0,34.0,29.78,ENE,70,10.0,-999.0,100,-99.99,,,-99.99,,2013-04-13 23:32:00,
2013-04-13 18:42:00,34.0,34.0,29.78,ENE,70,10.0,-999.0,100,-99.99,,,-99.99,,2013-04-13 23:42:00,
2013-04-13 18:52:00,34.0,34.0,29.78,ENE,70,12.0,16.0,100,-99.99,,,-99.99,,2013-04-13 23:52:00,
2013-04-13 19:02:00,34.0,34.0,29.78,ENE,70,12.0,16.0,100,-99.99,,,-99.99,,2013-04-14 00:02:00,
2013-04-13 19:12:00,34.0,32.0,29.78,ENE,70,10.0,15.0,93,-99.99,,,-99.99,,2013-04-14 00:12:00,
2013-04-13 19:22:00,34.0,32.0,29.78,ENE,70,10.0,15.0,93,-99.99,,,-99.99,,2013-04-14 00:22:00,
2013-04-13 19:32:00,32.0,30.0,29.78,ENE,70,10.0,15.0,92,-99.99,,,-99.99,,2013-04-14 00:32:00,
2013-04-13 19:42:00,32.0,30.0,29.78,ENE,70,10.0,15.0,92,-99.99,,,-99.99,,2013-04-14 00:42:00,
2013-04-13 19:52:00,32.0,30.0,29.78,ENE,70,12.0,-999.0,92,-99.99,,,-99.99,,2013-04-14 00:52:00,
2013-04-13 20:02:00,32.0,30.0,29.78,ENE,70,12.0,-999.0,92,-99.99,,,-99.99,,2013-04-14 01:02:00,
2013-04-13 20:12:00,32.0,30.0,29.77,ENE,70,12.0,17.0,92,-99.99,,,-99.99,,2013-04-14 01:12:00,
2013-04-13 20:22:00,32.0,30.0,29.77,ENE,70,12.0,17.0,92,-99.99,,,-99.99,,2013-04-14 01:22:00,
2013-04-13 20:32:00,32.0,30.0,29.77,ENE,70,13.0,-999.0,92,-99.99,,,-99.99,,2013-04-14 01:32:00,
2013-04-13 20:42:00,32.0,30.0,29.77,ENE,70,13.0,-999.0,92,-99.99,,,-99.99,,2013-04-14 01:42:00,
2013-04-13 20:52:00,32.0,30.0,29.77,ENE,60,14.0,18.0,92,-99.99,,,-99.99,,2013-04-14 01:52:00,
2013-04-13 21:02:00,32.0,30.0,29.77,ENE,60,14.0,18.0,92,-99.99,,,-99.99,,2013-04-14 02:02:00,
2013-04-13 21:12:00,32.0,30.0,29.76,ENE,70,14.0,-999.0,92,-99.99,,,-99.99,,2013-04-14 02:12:00,
2013-04-13 21:22:00,32.0,30.0,29.76,ENE,70,14.0,-999.0,92,-99.99,,,-99.99,,2013-04-14 02:22:00,
2013-04-13 21:32:00,32.0,30.0,29.76,ENE,70,14.0,20.0,92,-99.99,,,-99.99,,2013-04-14 02:32:00,
2013-04-13 21:42:00,32.0,30.0,29.76,ENE,70,14.0,20.0,92,-99.99,,,-99.99,,2013-04-14 02:42:00,
2013-04-13 21:52:00,32.0,30.0,29.76,ENE,70,14.0,18.0,92,-99.99,,,-99.99,,2013-04-14 02:52:00,
2013-04-13 22:02:00,32.0,30.0,29.76,ENE,70,14.0,18.0,92,-99.99,,,-99.99,,2013-04-14 03:02:00,
2013-04-13 22:12:00,32.0,30.0,29.76,ENE,70,14.0,18.0,92,-99.99,,,-99.99,,2013-04-14 03:12:00,
2013-04-13 22:22:00,32.0,30.0,29.76,ENE,70,14.0,18.0,92,-99.99,,,-99.99,,2013-04-14 03:22:00,
2013-04-13 22:33:00,34.0,32.0,29.76,East,80,14.0,21.0,93,-99.99,,,-99.99,,2013-04-14 03:33:00,
2013-04-13 22:43:00,34.0,32.0,29.76,East,80,14.0,21.0,93,-99.99,,,-99.99,,2013-04-14 03:43:00,
2013-04-13 22:53:00,34.0,32.0,29.75,East,80,14.0,21.0,93,-99.99,,,-99.99,,2013-04-14 03:53:00,
2013-04-13 23:02:00,34.0,32.0,29.75,East,80,14.0,21.0,93,-99.99,,,-99.99,,2013-04-14 04:02:00,
2013-04-13 23:12:00,34.0,32.0,29.75,East,80,14.0,21.0,93,-99.99,,,-99.99,,2013-04-14 04:12:00,
2013-04-13 23:23:00,34.0,32.0,29.75,East,80,14.0,21.0,93,-99.99,,,-99.99,,2013-04-14 04:23:00,
2013-04-13 23:32:00,34.0,32.0,29.74,East,80,15.0,22.0,93,-99.99,,,-99.99,,2013-04-14 04:32:00,
2013-04-13 23:43:00,34.0,32.0,29.74,East,80,15.0,22.0,93,-99.99,,,-99.99,,2013-04-14 04:43:00,
2013-04-13 23:52:00,34.0,34.0,29.72,East,80,15.0,24.0,100,-99.99,,,-99.99,,2013-04-14 04:52:00,